DW3607 Weather Reports


time (UTC)temp
F
wind
direction
speed
knots
gust
knots
rain 1hr
in
rain 24hr
in
rain mn
in
humidity
%
barometer
mb
20260504001704 57 234 0.0 0.0 0.00 0.00 0.00 83 1040.8
20260504001204 57 234 0.0 0.0 0.00 0.00 0.00 83 1040.8
20260504000704 57 234 0.0 0.0 0.00 0.00 0.00 83 1040.8
20260504000204 58 234 0.0 0.0 0.00 0.00 0.00 82 1040.7
20260503235203 58 241 0.0 0.0 0.00 0.00 0.00 81 1040.7
20260503234704 59 234 0.0 0.0 0.00 0.00 0.00 80 1040.7
20260503234203 59 234 0.0 0.0 0.00 0.00 0.00 80 1040.7
20260503233704 59 241 0.0 0.0 0.00 0.00 0.00 80 1040.9
20260503233204 59 235 0.0 0.0 0.00 0.00 0.00 79 1040.8
20260503232704 60 216 0.0 0.0 0.00 0.00 0.00 79 1040.8
20260503231204 60 246 0.0 0.0 0.00 0.00 0.00 80 1040.9
20260503230703 60 242 0.0 0.0 0.00 0.00 0.00 79 1040.9
20260503230204 60 233 0.0 0.0 0.00 0.00 0.00 78 1040.9
20260503225704 60 225 0.0 0.0 0.00 0.00 0.00 80 1040.9
20260503225204 60 246 0.0 0.0 0.00 0.00 0.00 80 1040.9
20260503224203 60 223 0.0 0.0 0.00 0.00 0.00 79 1040.9
20260503223704 60 229 0.0 0.0 0.00 0.00 0.00 80 1040.9
20260503223204 60 215 0.0 0.0 0.00 0.00 0.00 79 1041.0
20260503222704 60 224 0.0 0.0 0.00 0.00 0.00 79 1041.0
20260503222203 60 214 0.0 0.0 0.00 0.00 0.00 78 1041.0
20260503221704 60 198 0.0 0.0 0.00 0.00 0.00 79 1041.0
20260503221203 60 209 0.0 0.0 0.00 0.00 0.00 79 1041.0
20260503220704 61 237 0.0 0.0 0.00 0.00 0.00 78 1041.1
20260503220204 61 232 0.0 0.0 0.00 0.00 0.00 79 1041.0
20260503215704 61 238 0.0 0.0 0.00 0.00 0.00 79 1041.1
20260503215204 61 243 0.0 0.0 0.00 0.00 0.00 79 1041.1
20260503214704 60 225 0.0 0.0 0.00 0.00 0.00 78 1041.1
20260503213704 61 213 0.0 0.0 0.00 0.00 0.00 78 1041.0
20260503213204 61 239 0.0 0.0 0.00 0.00 0.00 80 1041.0
20260503212704 60 222 0.0 0.0 0.00 0.00 0.00 78 1040.9
20260503212204 61 225 0.0 0.0 0.00 0.00 0.00 78 1041.0
20260503211704 61 239 0.0 0.0 0.00 0.00 0.00 79 1040.9
20260503211203 61 253 0.0 0.0 0.00 0.00 0.00 78 1040.9
20260503210704 62 246 0.0 0.0 0.00 0.00 0.00 78 1041.0
20260503210203 63 249 0.0 0.0 0.00 0.00 0.00 77 1041.0
20260503205704 63 232 0.0 0.0 0.00 0.00 0.00 77 1040.9
20260503205203 63 242 0.0 0.0 0.00 0.00 0.00 78 1040.9
20260503204203 62 231 0.0 0.0 0.00 0.00 0.00 78 1041.1
20260503202704 63 264 0.0 0.0 0.00 0.00 0.00 78 1041.2
20260503202204 62 217 0.0 0.0 0.00 0.00 0.00 78 1041.2
20260503201704 63 228 0.0 0.0 0.00 0.00 0.00 79 1041.2
20260503200703 61 252 0.0 0.0 0.00 0.00 0.00 79 1041.4
20260503200204 61 231 0.0 0.0 0.00 0.00 0.00 78 1041.6
20260503195204 62 228 0.0 0.0 0.00 0.00 0.00 76 1041.7
20260503194704 62 250 0.0 0.0 0.00 0.00 0.00 79 1041.7
20260503194203 61 238 0.0 0.0 0.00 0.00 0.00 78 1041.8
20260503193204 62 206 0.0 0.0 0.00 0.01 0.00 78 1042.0
20260503192704 61 225 0.0 0.0 0.00 0.01 0.00 78 1042.1
20260503192204 61 219 0.0 0.0 0.00 0.01 0.00 77 1042.1
20260503191704 62 260 0.0 0.0 0.00 0.01 0.00 77 1042.1
20260503191204 61 247 0.0 0.0 0.00 0.01 0.00 79 1042.3
20260503190703 61 259 0.0 0.0 0.00 0.01 0.00 77 1042.4
20260503190204 62 268 0.0 0.0 0.00 0.01 0.00 78 1042.5
20260503185704 61 204 0.0 0.0 0.00 0.01 0.00 78 1042.5
20260503185203 62 262 0.0 0.0 0.00 0.01 0.00 79 1042.6
20260503184703 61 263 0.0 0.0 0.00 0.01 0.00 78 1042.7
20260503184204 61 252 0.0 0.0 0.00 0.01 0.00 79 1042.7
20260503183704 61 263 0.0 0.0 0.00 0.01 0.00 78 1042.7
20260503183204 61 245 0.0 0.0 0.00 0.01 0.00 79 1042.8
20260503182704 60 213 0.0 0.0 0.00 0.01 0.00 79 1042.9
20260503182204 60 251 0.0 0.0 0.00 0.01 0.00 78 1042.8
20260503181704 60 290 0.0 0.0 0.00 0.01 0.00 79 1043.0
20260503180704 60 230 0.0 0.0 0.00 0.01 0.00 78 1043.0
20260503180204 61 260 0.0 0.0 0.00 0.01 0.00 81 1043.1
20260503175704 60 233 0.0 0.0 0.00 0.01 0.00 80 1043.1
20260503175204 60 283 0.0 0.0 0.00 0.01 0.00 79 1043.2
20260503174704 61 227 0.0 0.0 0.00 0.01 0.00 79 1043.3
20260503174203 61 212 0.0 0.0 0.00 0.01 0.00 80 1043.3
20260503173704 61 236 0.0 0.0 0.00 0.01 0.00 80 1043.4
20260503173204 61 201 0.0 0.0 0.00 0.01 0.00 79 1043.3
20260503172704 60 265 0.0 0.0 0.00 0.01 0.00 80 1043.5
20260503171704 60 252 0.0 0.0 0.00 0.01 0.00 81 1043.6
20260503170704 60 230 0.0 0.0 0.00 0.01 0.00 82 1043.6
20260503170204 60 211 0.0 0.0 0.00 0.01 0.00 82 1043.7
20260503160204 57 243 0.0 0.0 0.00 0.01 0.00 83 1044.6
20260503150203 53 244 0.0 0.0 0.00 0.01 0.00 87 1045.2
20260503140203 51 240 0.0 0.0 0.00 0.01 0.00 86 1045.5
20260503130703 48 225 0.0 0.0 0.00 0.01 0.00 96 1045.8
20260503130204 47 271 0.0 0.0 0.00 0.01 0.00 97 1045.9
20260503120204 36 301 0.0 0.0 0.00 0.01 0.00 99 1046.0
20260503110704 30 301 0.0 0.0 0.00 0.01 0.00 99 1045.6
20260503110204 30 301 0.0 0.0 0.00 0.01 0.00 99 1045.6
20260503100204 30 301 0.0 0.0 0.00 0.02 0.00 99 1045.2
20260503090204 30 301 0.0 0.0 0.00 0.04 0.00 99 1045.4
20260503081203 31 301 0.0 0.0 0.00 0.04 0.00 100 1045.5
20260503080704 31 301 0.0 0.0 0.00 0.04 0.00 100 1045.5
20260503080203 31 301 0.0 0.0 0.00 0.04 0.00 100 1045.5
20260503072704 32 301 0.0 0.0 0.00 0.04 0.00 100 1045.4
20260503072203 32 301 0.0 0.0 0.00 0.04 0.00 100 1045.4
20260503071704 32 301 0.0 0.0 0.00 0.04 0.00 100 1045.5
20260503071204 32 301 0.0 0.0 0.00 0.04 0.00 100 1045.5
20260503070704 32 301 0.0 0.0 0.00 0.04 0.00 100 1045.5
20260503070204 32 301 0.0 0.0 0.00 0.04 0.00 100 1045.4
20260503060204 33 301 0.0 0.0 0.00 0.04 0.00 100 1045.8
20260503054204 34 301 0.0 0.0 0.00 0.04 0.00 100 1045.8
20260503053204 34 301 0.0 0.0 0.00 0.04 0.00 100 1045.9
20260503052703 35 301 0.0 0.0 0.00 0.04 0.00 100 1045.9
20260503052204 35 301 0.0 0.0 0.00 0.04 0.00 100 1045.9
20260503051703 35 301 0.0 0.0 0.00 0.04 0.00 100 1045.9
20260503051204 35 301 0.0 0.0 0.00 0.04 0.00 100 1045.9
20260503050703 35 301 0.0 0.0 0.00 0.04 0.00 100 1046.0
20260503050204 36 301 0.0 0.0 0.00 0.04 0.00 100 1046.0
20260503045703 36 301 0.0 0.0 0.00 0.04 0.00 100 1046.1
20260503045204 36 301 0.0 0.0 0.00 0.04 0.00 100 1046.1
20260503044703 37 301 0.0 0.0 0.00 0.04 0.00 100 1046.0
20260503044204 37 301 0.0 0.0 0.00 0.04 0.00 100 1046.1
20260503043704 38 301 0.0 0.0 0.00 0.04 0.00 100 1046.0
20260503043204 38 301 0.0 0.0 0.00 0.04 0.00 100 1046.0
20260503042204 38 301 0.0 0.0 0.00 0.04 0.00 100 1046.1
20260503041703 38 301 0.0 0.0 0.00 0.04 0.00 100 1046.1
20260503040704 39 301 0.0 0.0 0.00 0.04 0.00 100 1046.1
20260503040203 39 301 0.0 0.0 0.00 0.04 0.00 100 1046.2
20260503035703 39 301 0.0 0.0 0.00 0.04 0.04 100 1046.2
20260503034204 39 301 0.0 0.0 0.00 0.04 0.04 100 1046.2
20260503033703 39 301 0.0 0.0 0.00 0.04 0.04 100 1046.1
20260503032703 39 301 0.0 0.0 0.00 0.04 0.04 100 1046.2
20260503032204 39 301 0.0 0.0 0.00 0.04 0.04 100 1046.2
20260503031703 39 301 0.0 0.0 0.00 0.04 0.04 100 1046.3
20260503031203 39 301 0.0 0.0 0.00 0.04 0.04 100 1046.3
20260503030204 39 301 0.0 0.0 0.00 0.04 0.04 100 1046.5
20260503025703 39 301 0.0 0.0 0.00 0.04 0.04 100 1046.4
20260503025204 39 301 0.0 0.0 0.00 0.04 0.04 100 1046.4
20260503024203 39 301 0.0 0.0 0.00 0.04 0.04 100 1046.6
20260503023703 39 301 0.0 0.0 0.00 0.04 0.04 100 1046.6
20260503023204 40 301 0.0 0.0 0.00 0.04 0.04 100 1046.7
20260503022703 40 301 0.0 0.0 0.00 0.04 0.04 100 1046.7
20260503022204 40 301 0.0 0.0 0.00 0.04 0.04 100 1046.7
20260503021203 40 301 0.0 0.0 0.00 0.04 0.04 100 1046.7
20260503020704 40 301 0.0 0.0 0.00 0.04 0.04 100 1046.7
20260503015204 41 301 0.0 0.0 0.00 0.04 0.04 100 1046.6
20260503014703 41 301 0.0 0.0 0.00 0.04 0.04 100 1046.6
20260503014203 41 301 0.0 0.0 0.00 0.04 0.04 100 1046.6
20260503013203 41 301 0.0 0.0 0.00 0.04 0.04 100 1046.5
20260503012704 41 301 0.0 0.0 0.00 0.04 0.04 100 1046.6
20260503012204 41 301 0.0 0.0 0.00 0.04 0.04 100 1046.5
20260503011703 41 301 0.0 0.0 0.00 0.04 0.04 100 1046.5
20260503011204 42 301 0.0 0.0 0.00 0.04 0.04 100 1046.5
20260503010704 42 301 0.0 0.0 0.00 0.04 0.04 100 1046.5
20260503010204 42 301 0.0 0.0 0.00 0.04 0.04 100 1046.4
20260503005703 42 301 0.0 0.0 0.00 0.04 0.04 100 1046.5
20260503005204 42 301 0.0 0.0 0.00 0.04 0.04 99 1046.5
20260503004704 42 301 0.0 0.0 0.00 0.04 0.04 98 1046.4
20260503004203 42 301 0.0 0.0 0.00 0.04 0.04 97 1046.4
20260503003705 42 301 0.0 0.0 0.00 0.04 0.04 97 1046.4
20260503003205 42 301 0.0 0.0 0.00 0.04 0.04 97 1046.3
20260503002704 42 301 0.0 0.0 0.00 0.04 0.04 97 1046.4